Tracking 18630 objects as of 25-May-2017
HD Live streaming from Space Station
objects crossing your sky now

DELTA 1 R/B

Track DELTA 1 R/B now!
10-day predictions


NORAD ID: 4251
Int'l Code: 1969-101B
Perigee: 347.0 km
Apogee: 17,736.5 km
Inclination: 27.8 °
Period: 317.4 minutes
Semi major axis: 15412 km
RCS: 1.8664 m2 (large)
Launch date: November 22, 1969
Source: United States (US)
Launch site: AIR FORCE EASTERN TEST RANGE (AFETR)

Note: This is a ROCKET BODY
Your satellite tracking list
Your tracking list is empty





NASA's NSSDC Master Catalog

Two Line Element Set (TLE):
1  4251U 69101B   17141.02894706 +.00000294 +00000-0 +98170-4 0  9993
2  4251 027.7565 054.2508 5641285 287.4415 020.6413 04.53715200527302
Source of the keplerian elements: AFSPC